Regional Weather Roundup
Issued by NWS Upton, NY

Current Version | Previous Version | Graphics & Text | Print | Product List | Glossary Off
Versions: 1 2 3 4 5 6 7 8 9 10 11 12 13 14 15 16 17 18 19 20 21 22 23 24 25 26 27 28 29 30 31 32 33 34 35 36 37 38 39 40 41 42 43 44 45 46 47 48 49 50

000
ASUS41 KOKX 291705
RWROKX
REGIONAL WEATHER ROUNDUP
NATIONAL WEATHER SERVICE NEW YORK NY
100 PM EDT TUE JUL 29 2014

NOTE: "FAIR" INDICATES FEW OR NO CLOUDS BELOW 12,000 FEET WITH NO
SIGNIFICANT WEATHER AND/OR OBSTRUCTIONS TO VISIBILITY.

NYZ071-072-176-178-NJZ106-104-291800-
NEW YORK CITY METRO AREA


CITY           SKY/WX    TMP DP  RH WIND       PRES   REMARKS
CENTRAL PARK   PTSUNNY   72  50  45 CALM      29.89S
LAGUARDIA APRT PTSUNNY   72  51  47 NW9       29.86S
KENNEDY INTL   PTSUNNY   76  49  38 N8        29.87S
NEWARK/LIBERTY PTSUNNY   76  51  41 W13G20    29.87R
BRNX BOT. GARD   N/A     72  50  46 W2        29.87F
TETERBORO      MOSUNNY   74  49  41 W9        29.86R
$$

NYZ177-179-078>081-291800-
LONG ISLAND NEW YORK

CITY           SKY/WX    TMP DP  RH WIND       PRES   REMARKS
FARMINGDALE    SUNNY     74  51  44 VRB7      29.86S
ISLIP          PTSUNNY   76  54  46 CALM      29.84S
SHIRLEY        MOSUNNY   77  53  43 NW7       29.86S
WESTHAMPTON    PTSUNNY   76  54  46 W7        29.87R
MONTAUK POINT    N/A     74  58  57 W8        29.85S
$$

NYZ052-065-067-291800-
HUDSON VALLEY

CITY           SKY/WX    TMP DP  RH WIND       PRES   REMARKS
WHITE PLAINS   MOSUNNY   73  53  49 NW9       29.87R
NEWBURGH       NOT AVBL
MONTGOMERY     PTSUNNY   71  50  47 W8        29.86F
POUGHKEEPSIE   MOSUNNY   73  53  49 MISG      29.85S
ALBANY         MOSUNNY   71  52  50 W15       29.86S
$$

NJZ001-105-106-008-010-013-015-019>022-104-291800-
NEW JERSEY

CITY           SKY/WX    TMP DP  RH WIND       PRES   REMARKS
NEWARK/LIBERTY PTSUNNY   76  51  41 W13G20    29.87R
TETERBORO      MOSUNNY   74  49  41 W9        29.86R
CALDWELL       PTSUNNY   73  50  44 VRB6      29.88S
MORRISTOWN     PTSUNNY   72  52  49 N8        29.88S
SOMERVILLE     PTSUNNY   74  50  42 VRB6      29.87S
LINDEN         FAIR      76  53  43 N10       29.89S
SUSSEX         PTSUNNY   73  52  47 NW8       29.88F
ANDOVER          N/A     71  51  49 VRB5      29.89F
TRENTON        MOSUNNY   73  53  49 NW8       29.89S
MILLVILLE      PTSUNNY   74  55  51 VRB6      29.90S
ATLANTIC CITY  PTSUNNY   75  55  49 VRB5      29.89S
WRIGHTSTOWN    MOSUNNY   74  55  51 VRB7      29.87S
TOMS RIVER     MOSUNNY   73  52  46 NW6       29.89S
BELMAR         MOSUNNY   75  52  43 W13       29.89R
$$

PAZ047>061-062-071-291800-
EASTERN PENNSYLVANIA

CITY           SKY/WX    TMP DP  RH WIND       PRES   REMARKS
PHILADELPHIA   MOSUNNY   73  52  47 VRB5      29.90S
ALLENTOWN      PTSUNNY   73  50  44 W10G16    29.90S
SCRANTON       CLOUDY    68  45  43 W8        29.92S
$$

CTZ002-004>006-009-010-012-RIZ004-006-007-MAZ004-011-015-291800-
SOUTHERN NEW ENGLAND
 IN CT

CITY           SKY/WX    TMP DP  RH WIND       PRES   REMARKS
BRADLEY INTL   PTSUNNY   76  52  43 NW9       29.82S
HARTFORD       MOSUNNY   75  52  44 W9        29.83S
DANBURY        PTSUNNY   69  50  50 VRB6      29.88R
WTRBRY/OXFORD  MOSUNNY   70  52  52 NW12      29.89
BRIDGEPORT     MOSUNNY   77  52  41 W8        29.85R
MERIDEN        SUNNY     75  52  44 VRB6      29.84S
NEW HAVEN      MOSUNNY   77  53  43 VRB5      29.85R
CHESTER        FAIR      73  54  49 NW6       29.86R
GROTON         MOSUNNY   76  55  48 W8        29.82S
WILLIMANTIC    PTSUNNY   74  54  49 W6        29.84R

 IN RI

CITY           SKY/WX    TMP DP  RH WIND       PRES   REMARKS
PROVIDENCE     PTSUNNY   76  57  51 W9        29.82R
BLOCK ISLAND   SUNNY     73  57  56 W13G21    29.84S
WESTERLY       MOSUNNY   77  55  46 VRB6      29.83R

 IN MA

CITY           SKY/WX    TMP DP  RH WIND       PRES   REMARKS
BOSTON         MOSUNNY   76  56  49 SW8       29.80R
WORCESTER      MOSUNNY   71  54  54 W13       29.85R
WESTFIELD      MOSUNNY   75  52  44 W6        29.83S
PROVINCETOWN   SUNNY     73  57  56 CALM      29.82R
NANTUCKET      SUNNY     72  61  68 SW10      29.83R
$$

ANZ330-335-338-340-345-350-353-355-291800-
COASTAL MARINE OBSERVATIONS


STATION/POSITION TIME  SKY/WX   TEMP    WIND        PRES    VSBY  WAVE
                                AIR SEA DIR/SP/G                  HT/PER
                 (UTC)          (F)     (DEG/KT/KT) (MB)    (MI)  (FT/S)
NY HARB ENTRANCE NOT AVBL
4S FIRE IS       NOT AVBL
23SW MTP         1700            69 70              1010.1          4/ 8
HUDSON CANYON    1700            69 75  310/  8/ 12 1011.3          4/ 7
EXECUTION ROCKS  1700            71 71  290/  6/ 10   N/A
WESTERN LI SOUND 1700            71     260/  4/  6   N/A           0
CENTRAL LI SOUND 1600            69 70  280/ 10/ 12   N/A           1/ 4
EASTERN LI SOUND 1600            69 68  250/ 10/ 14   N/A
ROBBINS REEF     1600            71     290/ 15/ 17   N/A
$$


>>>>>>>>>>>>>>>>>>>>>>>>>>>> KEY <<<<<<<<<<<<<<<<<<<<<<<<<<<
>                                                          <
>     SKY/WX - SKY CONDITION/PRESENT WEATHER               <
>     TMP    - TEMPERATURE IN FAHRENHEIT                   <
>     DP     - DEWPOINT IN FAHRENHEIT                      <
>     RH     - RELATIVE HUMIDITY IN PERCENT                <
>     WIND   - DIRECTION AND SPEED IN MPH                  <
>     PRES   - MEAN SEA LEVEL PRESSURE IN INCHES OF HG     <
>     WCI    - WIND CHILL INDEX                            <
>     VSB    - VISIBILITY IN MILES                         <
>     HX     - HEAT INDEX                                  <
>     TC     - TEMPERATURE IN CELSIUS                      <
>     VRB    - VARIABLE WIND DIRECTION                     <
>                                                          <
>>>>>>>>>>>>>>>>>>>>>>>>>>>> KEY <<<<<<<<<<<<<<<<<<<<<<<<<<<





USA.gov is the U.S. government's official web portal to all federal, state and local government web resources and services.